TimeEDT,TemperatureF,Dew PointF,Humidity,Sea Level PressureIn,VisibilityMPH,Wind Direction,Wind SpeedMPH,Gust SpeedMPH,PrecipitationIn,Events,Conditions,WindDirDegrees,DateUTC
12:15 AM,55.4,55.4,100,29.85,10.0,South,9.2,-,N/A,,Overcast,190,2013-06-07 04:15:00
12:35 AM,55.4,55.4,100,29.85,10.0,South,8.1,-,N/A,Rain,Rain,190,2013-06-07 04:35:00
12:55 AM,55.4,55.4,100,29.85,10.0,South,5.8,-,N/A,Rain,Light Rain,170,2013-06-07 04:55:00
1:15 AM,55.4,55.4,100,29.85,10.0,SSW,6.9,-,N/A,,Overcast,200,2013-06-07 05:15:00
1:35 AM,55.4,55.4,100,29.85,10.0,South,5.8,-,N/A,,Overcast,190,2013-06-07 05:35:00
1:55 AM,55.4,55.4,100,29.85,10.0,SSW,5.8,-,N/A,,Overcast,200,2013-06-07 05:55:00
2:15 AM,55.4,55.4,100,29.85,10.0,South,4.6,-,N/A,,Overcast,190,2013-06-07 06:15:00
2:35 AM,55.4,55.4,100,29.85,10.0,South,6.9,-,N/A,,Overcast,180,2013-06-07 06:35:00
2:55 AM,55.4,55.4,100,29.84,5.0,South,4.6,-,N/A,Rain,Light Rain,190,2013-06-07 06:55:00
3:15 AM,55.4,55.4,100,29.84,10.0,South,4.6,-,N/A,,Overcast,190,2013-06-07 07:15:00
3:35 AM,55.4,55.4,100,29.84,10.0,SSW,4.6,-,N/A,,Overcast,200,2013-06-07 07:35:00
3:55 AM,55.4,55.4,100,29.83,7.0,South,3.5,-,N/A,,Overcast,190,2013-06-07 07:55:00
4:15 AM,55.4,55.4,100,29.83,10.0,South,3.5,-,N/A,,Overcast,180,2013-06-07 08:15:00
4:35 AM,55.4,55.4,100,29.84,10.0,South,3.5,-,N/A,,Overcast,190,2013-06-07 08:35:00
4:55 AM,55.4,55.4,100,29.84,10.0,South,3.5,-,N/A,,Overcast,180,2013-06-07 08:55:00
5:15 AM,55.4,55.4,100,29.84,10.0,South,3.5,-,N/A,,Overcast,180,2013-06-07 09:15:00
5:35 AM,55.4,55.4,100,29.84,10.0,Calm,Calm,-,N/A,,Overcast,0,2013-06-07 09:35:00
5:55 AM,55.4,55.4,100,29.84,2.5,Calm,Calm,-,N/A,,Overcast,0,2013-06-07 09:55:00
6:15 AM,55.4,55.4,100,29.84,5.0,Calm,Calm,-,N/A,,Overcast,0,2013-06-07 10:15:00
6:35 AM,55.4,55.4,100,29.85,5.0,Calm,Calm,-,N/A,,Overcast,0,2013-06-07 10:35:00
6:55 AM,55.4,55.4,100,29.85,3.0,Calm,Calm,-,N/A,,Overcast,0,2013-06-07 10:55:00
7:15 AM,55.4,55.4,100,29.85,3.0,Calm,Calm,-,N/A,,Overcast,0,2013-06-07 11:15:00
7:35 AM,57.2,57.2,100,29.85,2.5,South,3.5,-,N/A,,Overcast,170,2013-06-07 11:35:00
7:55 AM,57.2,57.2,100,29.85,2.0,Calm,Calm,-,N/A,,Overcast,0,2013-06-07 11:55:00
8:15 AM,57.2,57.2,100,29.85,3.0,Calm,Calm,-,N/A,,Overcast,0,2013-06-07 12:15:00
8:35 AM,57.2,57.2,100,29.85,3.0,Calm,Calm,-,N/A,,Overcast,0,2013-06-07 12:35:00
8:55 AM,57.2,57.2,100,29.85,2.5,Calm,Calm,-,N/A,,Overcast,0,2013-06-07 12:55:00
9:15 AM,59.0,59.0,100,29.85,2.5,Calm,Calm,-,N/A,,Overcast,0,2013-06-07 13:15:00
9:35 AM,59.0,59.0,100,29.85,7.0,Calm,Calm,-,N/A,,Overcast,0,2013-06-07 13:35:00
9:55 AM,59.0,59.0,100,29.85,10.0,Calm,Calm,-,N/A,,Overcast,0,2013-06-07 13:55:00
10:15 AM,59.0,59.0,100,29.85,10.0,Calm,Calm,-,N/A,,Overcast,0,2013-06-07 14:15:00
10:35 AM,60.8,57.2,88,29.85,10.0,Calm,Calm,-,N/A,,Overcast,0,2013-06-07 14:35:00
10:55 AM,60.8,59.0,94,29.85,10.0,Calm,Calm,-,N/A,,Overcast,0,2013-06-07 14:55:00
11:15 AM,60.8,59.0,94,-9999,10.0,NW,4.6,-,N/A,,Overcast,320,2013-06-07 15:15:00
11:35 AM,57.2,57.2,100,-9999,2.5,North,5.8,-,N/A,,Overcast,350,2013-06-07 15:35:00
11:55 AM,57.2,57.2,100,-9999,1.2,NNW,3.5,-,N/A,,Overcast,340,2013-06-07 15:55:00
12:15 PM,55.4,55.4,100,29.81,1.2,NW,3.5,-,N/A,,Overcast,320,2013-06-07 16:15:00
12:35 PM,55.4,55.4,100,29.85,2.0,NNW,3.5,-,N/A,,Overcast,330,2013-06-07 16:35:00
12:55 PM,55.4,55.4,100,29.82,1.2,NNW,4.6,-,N/A,Rain,Rain,340,2013-06-07 16:55:00
1:15 PM,55.4,55.4,100,29.84,1.5,NNW,5.8,-,N/A,Rain,Rain,340,2013-06-07 17:15:00
1:35 PM,57.2,57.2,100,29.84,3.0,North,5.8,-,N/A,,Light Drizzle,350,2013-06-07 17:35:00
1:55 PM,57.2,57.2,100,29.84,2.5,NNW,3.5,-,N/A,,Drizzle,340,2013-06-07 17:55:00
2:15 PM,57.2,57.2,100,29.83,3.0,North,4.6,-,N/A,,Drizzle,350,2013-06-07 18:15:00
2:35 PM,57.2,55.4,94,29.83,3.0,North,5.8,-,N/A,Rain,Rain,350,2013-06-07 18:35:00
2:55 PM,55.4,55.4,100,29.82,4.0,North,4.6,-,N/A,,Light Drizzle,360,2013-06-07 18:55:00
3:15 PM,55.4,55.4,100,29.82,3.0,Calm,Calm,-,N/A,Rain,Rain,0,2013-06-07 19:15:00
3:35 PM,57.2,57.2,100,29.83,2.5,North,3.5,-,N/A,,Drizzle,360,2013-06-07 19:35:00
3:55 PM,55.4,55.4,100,29.83,3.0,North,4.6,-,N/A,,Drizzle,350,2013-06-07 19:55:00
4:15 PM,55.4,55.4,100,29.82,3.0,North,3.5,-,N/A,,Overcast,350,2013-06-07 20:15:00
4:35 PM,55.4,55.4,100,29.81,1.5,North,6.9,-,N/A,,Overcast,10,2013-06-07 20:35:00
4:55 PM,55.4,55.4,100,29.80,1.8,North,6.9,-,N/A,,Overcast,350,2013-06-07 20:55:00
5:15 PM,55.4,55.4,100,29.80,2.5,North,5.8,-,N/A,,Overcast,360,2013-06-07 21:15:00
5:35 PM,55.4,55.4,100,29.80,3.0,North,4.6,-,N/A,,Overcast,350,2013-06-07 21:35:00
5:55 PM,55.4,55.4,100,29.79,2.0,North,8.1,-,N/A,,Overcast,360,2013-06-07 21:55:00
6:15 PM,55.4,55.4,100,29.80,2.0,North,5.8,-,N/A,,Overcast,350,2013-06-07 22:15:00
6:35 PM,55.4,55.4,100,29.79,1.5,North,6.9,-,N/A,,Overcast,350,2013-06-07 22:35:00
6:55 PM,55.4,55.4,100,29.79,1.2,North,4.6,-,N/A,,Overcast,350,2013-06-07 22:55:00
7:15 PM,53.6,53.6,100,29.79,3.0,North,3.5,-,N/A,,Overcast,360,2013-06-07 23:15:00
7:35 PM,53.6,53.6,100,29.79,3.0,NNW,5.8,-,N/A,,Overcast,340,2013-06-07 23:35:00
7:55 PM,53.6,53.6,100,29.79,2.0,NNW,4.6,-,N/A,,Overcast,340,2013-06-07 23:55:00
8:15 PM,53.6,53.6,100,29.79,2.5,North,6.9,-,N/A,,Overcast,350,2013-06-08 00:15:00
10:35 PM,51.8,51.8,100,29.81,0.5,NNW,4.6,-,N/A,Fog,Fog,330,2013-06-08 02:35:00
10:55 PM,51.8,51.8,100,29.82,0.2,NW,5.8,-,N/A,Fog,Fog,320,2013-06-08 02:55:00
11:15 PM,51.8,51.8,100,29.82,0.5,NNW,3.5,-,N/A,Fog,Fog,330,2013-06-08 03:15:00
11:35 PM,51.8,51.8,100,29.82,0.8,Calm,Calm,-,N/A,,Overcast,0,2013-06-08 03:35:00
11:55 PM,51.8,51.8,100,29.82,0.5,NW,3.5,-,N/A,Fog,Fog,310,2013-06-08 03:55:00